Location: Newark
(41.8083°N, 72.2500°W)
Time: 20:08:39
(UTC+00:00)

Courier 1B - Pass Details

Date: 30 November 2021
Orbit: 962 x 1209 km, 28.3° (Epoch: 19 January)

Event Time Altitude Azimuth Distance (km) Brightness Sun altitude
Rises 22:29:50 0° 225° (SW) 3,954 11.9 -12.9°
Reaches altitude 10° 22:33:27 10° 210° (SSW) 2,950 10.7 -13.5°
Maximum altitude 22:38:27 20° 166° (SSE) 2,223 9.4 -14.4°
Drops below altitude 10° 22:43:16 10° 121° (ESE) 2,824 9.5 -15.3°
Enters shadow 22:43:36 - 119° (ESE) 2,905 9.6 -15.3°
Sets 22:46:38 0° 105° (ESE) 3,736 - -15.9°
